FENGYUN 2G

Last updated on Fri Oct 11 2024 00:02:17 GMT+0000 (Coordinated Universal Time)

1 40367U 14090A 24284.49452156 -.00000293 00000+0 00000+0 0 9993 2 40367 4.0805 80.1476 0002851 165.4079 51.4746 1.00263706 35834
UTC large
Height (km)
Speed (km/s)
/
Latitude / Longitude
Inclination (degrees)
Orbital Period (minutes)
Azimuth
Elevation
Range (km)
Doppler Factor

Next 0 passes for location: London (51.5072 / 0.1276)

Sorry there are no passes over London.